When you browse on this site, cookies collect data to enhance your experience and personalize the content and advertising you see.
Visit our Privacy Policy to learn more. By continuing to use the site, you agree to this use of cookies and data.
  • In Lithuania
  • List of Countries
  • For 7 days
  • Water Temperature
  • Satellite Maps
  • Weather Map
  • Weather Widgets
  • user-avatar
    Login

    Hourly Weather Tibissa

    Today, 18 February, Monday

    Time Temperature Precipitation Wind Pressure Humidity
    00:00 +5°C° 0 mm 3 mps 690 mmHg 70%
    01:00 +4°C° 0 mm 3 mps 690 mmHg 71%
    02:00 +4°C° 0 mm 3 mps 689 mmHg 71%
    03:00 +4°C° 0 mm 3 mps 689 mmHg 70%
    04:00 +5°C° 0 mm 2 mps 689 mmHg 70%
    05:00 +4°C° 0 mm 2 mps 688 mmHg 70%
    06:00 +4°C° 0 mm 2 mps 688 mmHg 69%
    07:00 +3°C° 0 mm 3 mps 688 mmHg 68%
    08:00 +4°C° 0 mm 3 mps 688 mmHg 63%
    09:00 +5°C° 0 mm 3 mps 689 mmHg 58%
    10:00 +7°C° 0 mm 3 mps 689 mmHg 53%
    11:00 +8°C° 0 mm 3 mps 689 mmHg 48%
    12:00 +10°C° 0 mm 4 mps 688 mmHg 43%
    13:00 +11°C° 0 mm 4 mps 688 mmHg 38%
    14:00 +11°C° 0 mm 4 mps 688 mmHg 37%
    15:00 +11°C° 0 mm 4 mps 687 mmHg 36%
    16:00 +11°C° 0 mm 4 mps 687 mmHg 36%
    17:00 +10°C° 0 mm 3 mps 687 mmHg 40%
    18:00 +9°C° 0 mm 3 mps 686 mmHg 44%
    19:00 +8°C° 0 mm 3 mps 686 mmHg 48%
    20:00 +8°C° 0 mm 3 mps 686 mmHg 52%
    21:00 +7°C° 0 mm 3 mps 686 mmHg 56%
    22:00 +5°C° 0 mm 3 mps 687 mmHg 60%
    23:00 +5°C° 0 mm 3 mps 686 mmHg 61%

    Tomorrow, 19 February, Tuesday

    Time Temperature Precipitation Wind Pressure Humidity
    00:00 +4°C° 0 mm 3 mps 686 mmHg 63%
    01:00 +5°C° 0 mm 2 mps 686 mmHg 65%
    02:00 +5°C° 0 mm 2 mps 686 mmHg 66%
    03:00 +4°C° 0 mm 2 mps 686 mmHg 67%
    04:00 +4°C° 0 mm 2 mps 685 mmHg 68%
    05:00 +4°C° 0 mm 2 mps 685 mmHg 69%
    06:00 +3°C° 0 mm 2 mps 685 mmHg 70%
    07:00 +3°C° 0 mm 2 mps 685 mmHg 71%
    08:00 +5°C° 0 mm 2 mps 686 mmHg 63%
    09:00 +6°C° 0 mm 2 mps 686 mmHg 55%
    10:00 +8°C° 0 mm 2 mps 687 mmHg 47%
    11:00 +9°C° 0 mm 2 mps 687 mmHg 42%
    12:00 +11°C° 0 mm 3 mps 686 mmHg 37%
    13:00 +12°C° 0 mm 3 mps 686 mmHg 31%
    14:00 +12°C° 0 mm 3 mps 686 mmHg 31%
    15:00 +12°C° 0 mm 3 mps 686 mmHg 31%
    16:00 +12°C° 0 mm 3 mps 685 mmHg 31%
    17:00 +11°C° 0 mm 3 mps 685 mmHg 37%
    18:00 +10°C° 0 mm 3 mps 685 mmHg 43%
    19:00 +9°C° 0 mm 3 mps 685 mmHg 49%
    20:00 +8°C° 0 mm 3 mps 685 mmHg 54%
    21:00 +8°C° 0 mm 3 mps 685 mmHg 59%
    22:00 +7°C° 0 mm 2 mps 685 mmHg 64%
    23:00 +7°C° 0 mm 2 mps 685 mmHg 66%

    Day after tomorrow, 20 February, Wednesday

    Time Temperature Precipitation Wind Pressure Humidity
    00:00 +6°C° 0 mm 2 mps 685 mmHg 67%
    01:00 +6°C° 0 mm 2 mps 685 mmHg 68%
    02:00 +6°C° 0 mm 2 mps 685 mmHg 68%
    03:00 +5°C° 0 mm 2 mps 685 mmHg 68%
    04:00 +6°C° 0 mm 1 mps 685 mmHg 68%
    05:00 +5°C° 0 mm 2 mps 685 mmHg 68%
    06:00 +5°C° 0 mm 2 mps 685 mmHg 67%
    07:00 +5°C° 0 mm 2 mps 684 mmHg 67%
    08:00 +5°C° 0 mm 3 mps 685 mmHg 61%
    09:00 +8°C° 0 mm 3 mps 686 mmHg 55%
    10:00 +8°C° 0 mm 4 mps 686 mmHg 49%
    11:00 +10°C° 0 mm 5 mps 686 mmHg 47%
    12:00 +11°C° 0 mm 6 mps 686 mmHg 44%
    13:00 +12°C° 0 mm 7 mps 686 mmHg 42%
    14:00 +12°C° 0 mm 7 mps 686 mmHg 47%
    15:00 +11°C° 0 mm 7 mps 686 mmHg 52%
    16:00 +11°C° 0 mm 7 mps 686 mmHg 57%
    17:00 +10°C° 0 mm 7 mps 686 mmHg 63%
    18:00 +9°C° 0 mm 7 mps 686 mmHg 70%
    19:00 +8°C° 0 mm 6 mps 686 mmHg 76%
    20:00 +8°C° 0.1 mm 5 mps 687 mmHg 79%
    21:00 +7°C° 0.1 mm 4 mps 687 mmHg 82%
    22:00 +7°C° 0.1 mm 4 mps 688 mmHg 85%
    23:00 +7°C° 0.3 mm 4 mps 688 mmHg 86%

    21 February, Thursday

    Time Temperature Precipitation Wind Pressure Humidity
    00:00 +6°C° 0.3 mm 4 mps 688 mmHg 87%
    01:00 +6°C° 0.3 mm 4 mps 688 mmHg 88%
    02:00 +6°C° 0.4 mm 4 mps 688 mmHg 89%
    03:00 +6°C° 0.4 mm 4 mps 688 mmHg 90%
    04:00 +5°C° 0.4 mm 4 mps 688 mmHg 90%
    05:00 +5°C° 0.2 mm 3 mps 688 mmHg 91%
    06:00 +5°C° 0.2 mm 3 mps 688 mmHg 92%
    07:00 +5°C° 0.2 mm 3 mps 689 mmHg 92%
    08:00 +7°C° 0 mm 3 mps 689 mmHg 88%
    09:00 +7°C° 0 mm 3 mps 690 mmHg 84%
    10:00 +8°C° 0 mm 3 mps 690 mmHg 81%
    11:00 +8°C° 0 mm 4 mps 690 mmHg 73%
    12:00 +10°C° 0 mm 4 mps 691 mmHg 66%
    13:00 +11°C° 0 mm 4 mps 691 mmHg 58%
    14:00 +10°C° 0 mm 5 mps 691 mmHg 56%
    15:00 +12°C° 0 mm 5 mps 691 mmHg 53%
    16:00 +11°C° 0 mm 6 mps 691 mmHg 51%
    17:00 +10°C° 0 mm 5 mps 691 mmHg 57%
    18:00 +9°C° 0 mm 5 mps 691 mmHg 63%
    19:00 +8°C° 0 mm 5 mps 691 mmHg 69%
    20:00 +8°C° 0 mm 4 mps 692 mmHg 73%
    21:00 +8°C° 0 mm 3 mps 692 mmHg 78%
    22:00 +7°C° 0 mm 3 mps 693 mmHg 82%
    23:00 +7°C° 0 mm 3 mps 692 mmHg 86%

    22 February, Friday

    Time Temperature Precipitation Wind Pressure Humidity
    00:00 +5°C° 0 mm 3 mps 692 mmHg 91%
    01:00 +5°C° 0 mm 3 mps 692 mmHg 95%
    02:00 +5°C° 0 mm 3 mps 692 mmHg 94%
    03:00 +5°C° 0 mm 3 mps 692 mmHg 93%
    04:00 +5°C° 0 mm 3 mps 692 mmHg 93%
    05:00 +5°C° 0 mm 3 mps 692 mmHg 92%
    06:00 +4°C° 0 mm 3 mps 692 mmHg 91%
    07:00 +4°C° 0 mm 3 mps 693 mmHg 91%
    08:00 +5°C° 0 mm 3 mps 693 mmHg 83%
    09:00 +5°C° 0 mm 4 mps 693 mmHg 75%
    10:00 +6°C° 0 mm 4 mps 694 mmHg 67%
    11:00 +7°C° 0 mm 4 mps 694 mmHg 60%
    12:00 +8°C° 0 mm 5 mps 693 mmHg 53%
    13:00 +9°C° 0 mm 5 mps 693 mmHg 45%
    14:00 +10°C° 0 mm 5 mps 693 mmHg 45%
    15:00 +10°C° 0 mm 5 mps 693 mmHg 45%
    16:00 +10°C° 0 mm 5 mps 693 mmHg 44%
    17:00 +9°C° 0 mm 5 mps 693 mmHg 54%
    18:00 +8°C° 0 mm 5 mps 693 mmHg 63%
    19:00 +7°C° 0 mm 5 mps 693 mmHg 73%
    20:00 +6°C° 0 mm 4 mps 693 mmHg 79%
    21:00 +6°C° 0 mm 4 mps 693 mmHg 85%
    22:00 +5°C° 0 mm 3 mps 693 mmHg 92%
    23:00 +5°C° 0 mm 3 mps 693 mmHg 93%

    23 February, Saturday

    Time Temperature Precipitation Wind Pressure Humidity
    00:00 +4°C° 0 mm 3 mps 693 mmHg 94%
    01:00 +4°C° 0 mm 3 mps 693 mmHg 95%
    02:00 +3°C° 0 mm 3 mps 693 mmHg 95%
    03:00 +3°C° 0 mm 3 mps 693 mmHg 94%
    04:00 +3°C° 0 mm 3 mps 692 mmHg 94%
    05:00 +3°C° 0 mm 3 mps 692 mmHg 92%
    06:00 +2°C° 0 mm 3 mps 692 mmHg 91%
    07:00 +3°C° 0 mm 2 mps 693 mmHg 89%
    08:00 +4°C° 0 mm 3 mps 693 mmHg 79%
    09:00 +5°C° 0 mm 3 mps 694 mmHg 69%
    10:00 +7°C° 0 mm 4 mps 694 mmHg 59%
    11:00 +8°C° 0 mm 5 mps 694 mmHg 55%
    12:00 +10°C° 0 mm 6 mps 694 mmHg 50%
    13:00 +11°C° 0 mm 8 mps 694 mmHg 46%
    14:00 +11°C° 0 mm 8 mps 694 mmHg 47%
    15:00 +12°C° 0 mm 9 mps 694 mmHg 47%
    16:00 +12°C° 0 mm 9 mps 693 mmHg 47%
    17:00 +10°C° 0 mm 9 mps 693 mmHg 56%
    18:00 +9°C° 0 mm 8 mps 693 mmHg 65%
    19:00 +6°C° 0 mm 7 mps 693 mmHg 74%
    20:00 +6°C° 0 mm 7 mps 693 mmHg 80%
    21:00 +5°C° 0 mm 6 mps 694 mmHg 85%
    22:00 +5°C° 0 mm 5 mps 694 mmHg 90%
    23:00 +5°C° 0 mm 5 mps 694 mmHg 91%
    Show more